Regional Weather Roundup
Issued by NWS Jackson, KY

Home | Current Version | Previous Version | Text Only | Print | Product List | Glossary On
Versions: 1 2 3 4 5 6 7 8 9 10 11 12 13 14 15 16 17 18 19 20 21 22 23 24 25 26 27 28 29 30 31 32 33 34 35 36 37 38 39 40 41 42 43 44 45 46 47 48 49 50
000
ASUS43 KJKL 260919
RWRJKL

EAST KENTUCKY HOURLY WEATHER ROUNDUP
NATIONAL WEATHER SERVICE JACKSON KY
400 AM EST MON JAN 26 2015

NOTE: "FAIR" INDICATES FEW OR NO CLOUDS BELOW 12,000 FEET WITH
NO SIGNIFICANT WEATHER AND/OR OBSTRUCTIONS TO VISIBILITY.

* THESE REPORTS ARE NOT UNDER NWS QUALITY CONTROL AND MAY NOT
  REPORT WEATHER SUCH AS PRECIPITATION AND FOG.

KYZ079-080-083-085-087-088-110-112-115-119-120-261000
...EASTERN KENTUCKY...

CITY           SKY/WX    TMP DP  RH WIND       PRES   REMARKS
JACKSON        CLOUDY    41  38  89 SW3       29.62S
LONDON         CLOUDY    38  33  82 W7        29.66S WCI  33
SOMERSET*      CLOUDY    36  36 100 W5        29.71R WCI  32
MONTICELLO*    LGT SNOW  37  37 100 W9        29.73S FOG     WCI  31
MIDDLESBORO*   LGT RAIN  40  37  88 CALM      29.66S
HARLAN APT*    CLOUDY    37  36  93 W9        29.64S WCI  31
HAZARD APT*    CLOUDY    41  41 100 W6        29.63S
BLACK MTN*       N/A     32  32 100 S3          N/A
PIKEVILLE APT* DRIZZLE   39  37  93 N5        29.62S
BIG SANDY*     LGT RAIN  42  40  91 S7        29.63S
MOREHEAD APT*  LGT RAIN  37  37 100 NW10      29.67R VSB<1/4 WCI  30
ASHLAND*       CLOUDY   N/A N/A N/A CALM      29.62S
$$

KYZ035-036-041-042-044-050-067-078-099-261000
...CENTRAL KENTUCKY...

CITY           SKY/WX    TMP DP  RH WIND       PRES   REMARKS
MT STERLING*   CLOUDY    36  36 100 N8G16     29.67R FOG     WCI  29
FLEMING/MASON* CLOUDY    31  31  99 N8G17     29.68R FOG     WCI  24
DANVILLE*      LGT RAIN  34  34 100 NW14      29.72R WCI  24
RICHMOND*      CLOUDY    37  36  93 NW17      29.67R WCI  28
LEXINGTON      CLOUDY    29  29 100 NW17G24   29.72R FOG     WCI  17
FRANKFORT      CLOUDY    29  26  89 NW10      29.74R WCI  20
$$

KYZ091>093-OHZ055-061-077-WVZ005-015-034-035-042-261000
...SOUTHERN OHIO/WEST VIRGINIA...

CITY           SKY/WX    TMP DP  RH WIND       PRES   REMARKS
COVINGTON      CLOUDY    25  19  80 N20       29.77R FOG     WCI  11
COLUMBUS       LGT SNOW  21  19  93 N13       29.74S FOG     WCI   9
DAYTON         CLOUDY    19  15  84 N17       29.79S WCI   4
WILMINGTON     LGT SNOW  21  17  84 N20       29.73S FOG     WCI   6
HUNTINGTON     FOG       39  39 100 N5        29.62F VSB 1/2
CHARLESTON     LGT RAIN  39  38  96 NE3       29.62F FOG
PINEVILLE*     CLOUDY    39  39 100 MISG      29.66S
BECKLEY        CLOUDY    38  31  76 SE5       29.60F WCI  34
BLUEFIELD      CLOUDY    40  28  62 CALM      29.60F
$$

VAZ002-007-008-TNZ017-027-036-066-071-261000
...SOUTHWEST VIRGINIA/EAST TENNESSEE...

CITY           SKY/WX    TMP DP  RH WIND       PRES   REMARKS
WISE*          CLOUDY    37  34  87 S3        29.61F
JONESVILLE*    LGT RAIN  39  39 100 NW3       29.66S
ABINGDON*      CLOUDY    42  35  76 CALM      29.62F
BRISTOL        LGT RAIN  42  39  89 SW7       29.64S
KNOXVILLE      LGT RAIN  41  38  89 W8        29.69R
OAK RIDGE      CLOUDY    41  38  89 VRB7      29.69S
CROSSVILLE     CLOUDY    38  34  85 NW13G21   29.70R WCI  30
NASHVILLE      CLOUDY    37  34  87 NW17G28   29.84R WCI  28
$$

...KEY TO REMARKS...
VSB - VISIBILITY IN MILES
WCI - WIND CHILL INDEX
HX  - HEAT INDEX

$$


USA.gov is the U.S. government's official web portal to all federal, state and local government web resources and services.